Pagina principale
METAR-TAF:

METAR-TAF

Aeroporti :

Isbell Field

Fort Payne, Alabama, Stati Uniti

latitudine: 34-28-25N, longitudine: 085-43-17W, altezza: 267 m

Osservazione

Il bollettino è stato emesso 25 minuti fa, alle 09:35 UTC
Vento 6 kt da ovest/nord-ovest
Temperature 11°C
Umidità 94%
Pressione 1018 hPa
Visibilità: 11.3 km
Cielo coperto ad un'altezza di 500 ft
pioviggine debole, foschia

METAR: K4A9 230935Z AUTO 29006KT 7SM -DZ BR OVC005 11/10 A3006 RMK AO2 T01080103

Ora: 04:00 (10:00 UTC)


TAF: mancante

Osservazioni e previsioni meteorologiche di più di 4000 aeroporti (messaggi METAR e TAF).

Le stazioni disponibili sono rappresentate dai dischi gialli e rossi sulla carta.

Puntare il mouse per vedere il nome della stazione.

Clicca sopra per visualizzare le osservazioni e previsioni meteorologiche.

Per cambiare la mappa : fare clic sui pulsanti verdi con una croce nera per ingrandire, il pulsante verde con un trattino per diminuire, o sulla freccia verde per le mappe adiacenti.


METAR-TAF: